<?xml version="1.0" encoding="utf-8"?>
<gpx xmlns:xsi="http://www.w3.org/2001/XMLSchema-instance" xmlns:xsd="http://www.w3.org/2001/XMLSchema" version="1.1" creator="Shapelink.com" xmlns="http://www.topografix.com/GPX/1/1" xmlns:gpxtpx="http://www.garmin.com/xmlschemas/TrackPointExtension/v1">
  <metadata>
    <name>Promenad 4.68 km, 2014-01-12</name>
    <desc></desc>
    <author><name>Mattias Eriksson</name></author> 
    <time>1970-01-01T01:00:00Z</time>
  </metadata>
  <trk>
    <name>Promenad 4.68 km, 2014-01-12</name>
    <trkseg>
      <trkpt lat="56.809928" lon="13.958091">
        <ele>181.375</ele>
        <time>1970-01-01T01:00:00Z</time>
      </trkpt>
      <trkpt lat="56.809876" lon="13.958219">
        <ele>181.889</ele>
        <time>1970-01-01T01:00:00Z</time>
      </trkpt>
      <trkpt lat="56.809821" lon="13.95835">
        <ele>182.3</ele>
        <time>1970-01-01T01:00:00Z</time>
      </trkpt>
      <trkpt lat="56.809765" lon="13.958465">
        <ele>182.182</ele>
        <time>1970-01-01T01:00:00Z</time>
      </trkpt>
      <trkpt lat="56.809703" lon="13.958589">
        <ele>182.182</ele>
        <time>1970-01-01T01:00:00Z</time>
      </trkpt>
      <trkpt lat="56.809633" lon="13.95867">
        <ele>181.909</ele>
        <time>1970-01-01T01:00:00Z</time>
      </trkpt>
      <trkpt lat="56.809556" lon="13.958737">
        <ele>181.909</ele>
        <time>1970-01-01T01:00:00Z</time>
      </trkpt>
      <trkpt lat="56.809474" lon="13.958772">
        <ele>181.909</ele>
        <time>1970-01-01T01:00:00Z</time>
      </trkpt>
      <trkpt lat="56.809393" lon="13.9588">
        <ele>181.909</ele>
        <time>1970-01-01T01:00:00Z</time>
      </trkpt>
      <trkpt lat="56.809303" lon="13.95883">
        <ele>181.909</ele>
        <time>1970-01-01T01:00:00Z</time>
      </trkpt>
      <trkpt lat="56.809215" lon="13.958835">
        <ele>181.909</ele>
        <time>1970-01-01T01:00:00Z</time>
      </trkpt>
      <trkpt lat="56.809136" lon="13.958894">
        <ele>181.818</ele>
        <time>1970-01-01T01:00:00Z</time>
      </trkpt>
      <trkpt lat="56.809058" lon="13.958972">
        <ele>181.273</ele>
        <time>1970-01-01T01:00:00Z</time>
      </trkpt>
      <trkpt lat="56.808977" lon="13.958984">
        <ele>180.727</ele>
        <time>1970-01-01T01:00:00Z</time>
      </trkpt>
      <trkpt lat="56.808881" lon="13.959017">
        <ele>180.636</ele>
        <time>1970-01-01T01:00:00Z</time>
      </trkpt>
      <trkpt lat="56.808802" lon="13.959087">
        <ele>180.545</ele>
        <time>1970-01-01T01:00:00Z</time>
      </trkpt>
      <trkpt lat="56.808717" lon="13.959128">
        <ele>180.455</ele>
        <time>1970-01-01T01:00:00Z</time>
      </trkpt>
      <trkpt lat="56.808634" lon="13.959165">
        <ele>180.364</ele>
        <time>1970-01-01T01:00:00Z</time>
      </trkpt>
      <trkpt lat="56.808557" lon="13.959215">
        <ele>180.273</ele>
        <time>1970-01-01T01:00:00Z</time>
      </trkpt>
      <trkpt lat="56.808475" lon="13.959291">
        <ele>180.182</ele>
        <time>1970-01-01T01:00:00Z</time>
      </trkpt>
      <trkpt lat="56.808384" lon="13.959351">
        <ele>179.727</ele>
        <time>1970-01-01T01:00:00Z</time>
      </trkpt>
      <trkpt lat="56.808292" lon="13.959398">
        <ele>179.273</ele>
        <time>1970-01-01T01:00:00Z</time>
      </trkpt>
      <trkpt lat="56.8082" lon="13.959435">
        <ele>178.727</ele>
        <time>1970-01-01T01:00:00Z</time>
      </trkpt>
      <trkpt lat="56.808117" lon="13.959472">
        <ele>178.182</ele>
        <time>1970-01-01T01:00:00Z</time>
      </trkpt>
      <trkpt lat="56.808026" lon="13.959508">
        <ele>177.636</ele>
        <time>1970-01-01T01:00:00Z</time>
      </trkpt>
      <trkpt lat="56.80794" lon="13.959535">
        <ele>177.091</ele>
        <time>1970-01-01T01:00:00Z</time>
      </trkpt>
      <trkpt lat="56.807862" lon="13.959584">
        <ele>176.545</ele>
        <time>1970-01-01T01:00:00Z</time>
      </trkpt>
      <trkpt lat="56.807782" lon="13.95962">
        <ele>176</ele>
        <time>1970-01-01T01:00:00Z</time>
      </trkpt>
      <trkpt lat="56.807703" lon="13.959663">
        <ele>175.455</ele>
        <time>1970-01-01T01:00:00Z</time>
      </trkpt>
      <trkpt lat="56.807621" lon="13.959732">
        <ele>174.909</ele>
        <time>1970-01-01T01:00:00Z</time>
      </trkpt>
      <trkpt lat="56.807518" lon="13.959797">
        <ele>174.364</ele>
        <time>1970-01-01T01:00:00Z</time>
      </trkpt>
      <trkpt lat="56.80745" lon="13.959888">
        <ele>174.364</ele>
        <time>1970-01-01T01:00:00Z</time>
      </trkpt>
      <trkpt lat="56.807381" lon="13.95998">
        <ele>174.364</ele>
        <time>1970-01-01T01:00:00Z</time>
      </trkpt>
      <trkpt lat="56.80731" lon="13.960093">
        <ele>174.545</ele>
        <time>1970-01-01T01:00:00Z</time>
      </trkpt>
      <trkpt lat="56.807252" lon="13.960203">
        <ele>174.727</ele>
        <time>1970-01-01T01:00:00Z</time>
      </trkpt>
      <trkpt lat="56.807188" lon="13.960332">
        <ele>174.909</ele>
        <time>1970-01-01T01:00:00Z</time>
      </trkpt>
      <trkpt lat="56.80714" lon="13.960461">
        <ele>175.091</ele>
        <time>1970-01-01T01:00:00Z</time>
      </trkpt>
      <trkpt lat="56.807103" lon="13.960596">
        <ele>175.273</ele>
        <time>1970-01-01T01:00:00Z</time>
      </trkpt>
      <trkpt lat="56.807069" lon="13.960742">
        <ele>175.455</ele>
        <time>1970-01-01T01:00:00Z</time>
      </trkpt>
      <trkpt lat="56.807024" lon="13.96089">
        <ele>175.636</ele>
        <time>1970-01-01T01:00:00Z</time>
      </trkpt>
      <trkpt lat="56.806986" lon="13.961021">
        <ele>175.818</ele>
        <time>1970-01-01T01:00:00Z</time>
      </trkpt>
      <trkpt lat="56.806904" lon="13.961093">
        <ele>176</ele>
        <time>1970-01-01T01:00:00Z</time>
      </trkpt>
      <trkpt lat="56.806804" lon="13.961094">
        <ele>176</ele>
        <time>1970-01-01T01:00:00Z</time>
      </trkpt>
      <trkpt lat="56.806706" lon="13.961073">
        <ele>176</ele>
        <time>1970-01-01T01:00:00Z</time>
      </trkpt>
      <trkpt lat="56.806619" lon="13.961041">
        <ele>175.909</ele>
        <time>1970-01-01T01:00:00Z</time>
      </trkpt>
      <trkpt lat="56.806527" lon="13.961012">
        <ele>175.818</ele>
        <time>1970-01-01T01:00:00Z</time>
      </trkpt>
      <trkpt lat="56.806448" lon="13.960982">
        <ele>175.727</ele>
        <time>1970-01-01T01:00:00Z</time>
      </trkpt>
      <trkpt lat="56.806356" lon="13.960933">
        <ele>175.636</ele>
        <time>1970-01-01T01:00:00Z</time>
      </trkpt>
      <trkpt lat="56.806262" lon="13.960884">
        <ele>175.545</ele>
        <time>1970-01-01T01:00:00Z</time>
      </trkpt>
      <trkpt lat="56.80618" lon="13.960838">
        <ele>175.455</ele>
        <time>1970-01-01T01:00:00Z</time>
      </trkpt>
      <trkpt lat="56.806099" lon="13.960799">
        <ele>175.364</ele>
        <time>1970-01-01T01:00:00Z</time>
      </trkpt>
      <trkpt lat="56.806008" lon="13.960753">
        <ele>175.273</ele>
        <time>1970-01-01T01:00:00Z</time>
      </trkpt>
      <trkpt lat="56.805921" lon="13.960711">
        <ele>175.182</ele>
        <time>1970-01-01T01:00:00Z</time>
      </trkpt>
      <trkpt lat="56.80584" lon="13.960662">
        <ele>175</ele>
        <time>1970-01-01T01:00:00Z</time>
      </trkpt>
      <trkpt lat="56.805756" lon="13.960637">
        <ele>174.818</ele>
        <time>1970-01-01T01:00:00Z</time>
      </trkpt>
      <trkpt lat="56.805671" lon="13.960601">
        <ele>174.364</ele>
        <time>1970-01-01T01:00:00Z</time>
      </trkpt>
      <trkpt lat="56.805585" lon="13.96057">
        <ele>173.909</ele>
        <time>1970-01-01T01:00:00Z</time>
      </trkpt>
      <trkpt lat="56.805506" lon="13.960522">
        <ele>173.455</ele>
        <time>1970-01-01T01:00:00Z</time>
      </trkpt>
      <trkpt lat="56.805414" lon="13.960486">
        <ele>173</ele>
        <time>1970-01-01T01:00:00Z</time>
      </trkpt>
      <trkpt lat="56.805326" lon="13.960452">
        <ele>172.545</ele>
        <time>1970-01-01T01:00:00Z</time>
      </trkpt>
      <trkpt lat="56.80524" lon="13.960403">
        <ele>172.091</ele>
        <time>1970-01-01T01:00:00Z</time>
      </trkpt>
      <trkpt lat="56.805154" lon="13.960346">
        <ele>171.636</ele>
        <time>1970-01-01T01:00:00Z</time>
      </trkpt>
      <trkpt lat="56.805072" lon="13.960288">
        <ele>171.182</ele>
        <time>1970-01-01T01:00:00Z</time>
      </trkpt>
      <trkpt lat="56.804988" lon="13.960251">
        <ele>170.818</ele>
        <time>1970-01-01T01:00:00Z</time>
      </trkpt>
      <trkpt lat="56.804905" lon="13.960216">
        <ele>170.545</ele>
        <time>1970-01-01T01:00:00Z</time>
      </trkpt>
      <trkpt lat="56.804817" lon="13.960189">
        <ele>170.273</ele>
        <time>1970-01-01T01:00:00Z</time>
      </trkpt>
      <trkpt lat="56.804731" lon="13.960152">
        <ele>170.364</ele>
        <time>1970-01-01T01:00:00Z</time>
      </trkpt>
      <trkpt lat="56.80465" lon="13.960111">
        <ele>170.455</ele>
        <time>1970-01-01T01:00:00Z</time>
      </trkpt>
      <trkpt lat="56.804565" lon="13.960073">
        <ele>170.545</ele>
        <time>1970-01-01T01:00:00Z</time>
      </trkpt>
      <trkpt lat="56.804485" lon="13.960031">
        <ele>170.636</ele>
        <time>1970-01-01T01:00:00Z</time>
      </trkpt>
      <trkpt lat="56.8044" lon="13.959987">
        <ele>170.727</ele>
        <time>1970-01-01T01:00:00Z</time>
      </trkpt>
      <trkpt lat="56.804314" lon="13.959945">
        <ele>170.818</ele>
        <time>1970-01-01T01:00:00Z</time>
      </trkpt>
      <trkpt lat="56.804226" lon="13.959906">
        <ele>170.909</ele>
        <time>1970-01-01T01:00:00Z</time>
      </trkpt>
      <trkpt lat="56.804144" lon="13.959877">
        <ele>171.273</ele>
        <time>1970-01-01T01:00:00Z</time>
      </trkpt>
      <trkpt lat="56.804057" lon="13.959842">
        <ele>171.545</ele>
        <time>1970-01-01T01:00:00Z</time>
      </trkpt>
      <trkpt lat="56.803968" lon="13.95981">
        <ele>171.818</ele>
        <time>1970-01-01T01:00:00Z</time>
      </trkpt>
      <trkpt lat="56.803888" lon="13.959784">
        <ele>172.182</ele>
        <time>1970-01-01T01:00:00Z</time>
      </trkpt>
      <trkpt lat="56.803808" lon="13.959741">
        <ele>172.545</ele>
        <time>1970-01-01T01:00:00Z</time>
      </trkpt>
      <trkpt lat="56.803718" lon="13.959703">
        <ele>172.909</ele>
        <time>1970-01-01T01:00:00Z</time>
      </trkpt>
      <trkpt lat="56.803638" lon="13.959666">
        <ele>173.273</ele>
        <time>1970-01-01T01:00:00Z</time>
      </trkpt>
      <trkpt lat="56.803556" lon="13.959645">
        <ele>173.636</ele>
        <time>1970-01-01T01:00:00Z</time>
      </trkpt>
      <trkpt lat="56.803475" lon="13.959549">
        <ele>174.091</ele>
        <time>1970-01-01T01:00:00Z</time>
      </trkpt>
      <trkpt lat="56.803462" lon="13.959394">
        <ele>174.545</ele>
        <time>1970-01-01T01:00:00Z</time>
      </trkpt>
      <trkpt lat="56.803471" lon="13.959224">
        <ele>175</ele>
        <time>1970-01-01T01:00:00Z</time>
      </trkpt>
      <trkpt lat="56.803496" lon="13.959061">
        <ele>175.182</ele>
        <time>1970-01-01T01:00:00Z</time>
      </trkpt>
      <trkpt lat="56.803514" lon="13.958907">
        <ele>175.364</ele>
        <time>1970-01-01T01:00:00Z</time>
      </trkpt>
      <trkpt lat="56.803551" lon="13.958765">
        <ele>175.182</ele>
        <time>1970-01-01T01:00:00Z</time>
      </trkpt>
      <trkpt lat="56.8036" lon="13.958636">
        <ele>174.909</ele>
        <time>1970-01-01T01:00:00Z</time>
      </trkpt>
      <trkpt lat="56.803659" lon="13.958533">
        <ele>174.545</ele>
        <time>1970-01-01T01:00:00Z</time>
      </trkpt>
      <trkpt lat="56.803718" lon="13.958409">
        <ele>174.182</ele>
        <time>1970-01-01T01:00:00Z</time>
      </trkpt>
      <trkpt lat="56.803786" lon="13.958296">
        <ele>173.818</ele>
        <time>1970-01-01T01:00:00Z</time>
      </trkpt>
      <trkpt lat="56.803843" lon="13.958191">
        <ele>173.455</ele>
        <time>1970-01-01T01:00:00Z</time>
      </trkpt>
      <trkpt lat="56.803903" lon="13.958076">
        <ele>173</ele>
        <time>1970-01-01T01:00:00Z</time>
      </trkpt>
      <trkpt lat="56.80395" lon="13.957954">
        <ele>172.545</ele>
        <time>1970-01-01T01:00:00Z</time>
      </trkpt>
      <trkpt lat="56.80399" lon="13.957821">
        <ele>172.091</ele>
        <time>1970-01-01T01:00:00Z</time>
      </trkpt>
      <trkpt lat="56.804032" lon="13.957686">
        <ele>171.636</ele>
        <time>1970-01-01T01:00:00Z</time>
      </trkpt>
      <trkpt lat="56.804081" lon="13.957561">
        <ele>171.182</ele>
        <time>1970-01-01T01:00:00Z</time>
      </trkpt>
      <trkpt lat="56.804136" lon="13.957433">
        <ele>171.091</ele>
        <time>1970-01-01T01:00:00Z</time>
      </trkpt>
      <trkpt lat="56.804187" lon="13.957315">
        <ele>171</ele>
        <time>1970-01-01T01:00:00Z</time>
      </trkpt>
      <trkpt lat="56.804236" lon="13.957188">
        <ele>171</ele>
        <time>1970-01-01T01:00:00Z</time>
      </trkpt>
      <trkpt lat="56.804275" lon="13.957055">
        <ele>171.182</ele>
        <time>1970-01-01T01:00:00Z</time>
      </trkpt>
      <trkpt lat="56.804312" lon="13.956896">
        <ele>171.364</ele>
        <time>1970-01-01T01:00:00Z</time>
      </trkpt>
      <trkpt lat="56.80433" lon="13.956733">
        <ele>171.545</ele>
        <time>1970-01-01T01:00:00Z</time>
      </trkpt>
      <trkpt lat="56.804341" lon="13.956568">
        <ele>171.727</ele>
        <time>1970-01-01T01:00:00Z</time>
      </trkpt>
      <trkpt lat="56.804323" lon="13.956397">
        <ele>171.909</ele>
        <time>1970-01-01T01:00:00Z</time>
      </trkpt>
      <trkpt lat="56.804336" lon="13.956235">
        <ele>172.273</ele>
        <time>1970-01-01T01:00:00Z</time>
      </trkpt>
      <trkpt lat="56.804362" lon="13.956074">
        <ele>172.636</ele>
        <time>1970-01-01T01:00:00Z</time>
      </trkpt>
      <trkpt lat="56.804386" lon="13.955913">
        <ele>173</ele>
        <time>1970-01-01T01:00:00Z</time>
      </trkpt>
      <trkpt lat="56.804388" lon="13.955752">
        <ele>173.364</ele>
        <time>1970-01-01T01:00:00Z</time>
      </trkpt>
      <trkpt lat="56.804414" lon="13.955586">
        <ele>173.727</ele>
        <time>1970-01-01T01:00:00Z</time>
      </trkpt>
      <trkpt lat="56.804441" lon="13.955427">
        <ele>174.091</ele>
        <time>1970-01-01T01:00:00Z</time>
      </trkpt>
      <trkpt lat="56.804488" lon="13.955303">
        <ele>174.545</ele>
        <time>1970-01-01T01:00:00Z</time>
      </trkpt>
      <trkpt lat="56.804517" lon="13.95516">
        <ele>175</ele>
        <time>1970-01-01T01:00:00Z</time>
      </trkpt>
      <trkpt lat="56.80455" lon="13.955001">
        <ele>175.455</ele>
        <time>1970-01-01T01:00:00Z</time>
      </trkpt>
      <trkpt lat="56.804567" lon="13.954853">
        <ele>175.909</ele>
        <time>1970-01-01T01:00:00Z</time>
      </trkpt>
      <trkpt lat="56.804583" lon="13.954692">
        <ele>176.364</ele>
        <time>1970-01-01T01:00:00Z</time>
      </trkpt>
      <trkpt lat="56.8046" lon="13.954533">
        <ele>176.636</ele>
        <time>1970-01-01T01:00:00Z</time>
      </trkpt>
      <trkpt lat="56.804603" lon="13.954373">
        <ele>176.909</ele>
        <time>1970-01-01T01:00:00Z</time>
      </trkpt>
      <trkpt lat="56.804621" lon="13.954223">
        <ele>177.182</ele>
        <time>1970-01-01T01:00:00Z</time>
      </trkpt>
      <trkpt lat="56.804664" lon="13.954062">
        <ele>177.455</ele>
        <time>1970-01-01T01:00:00Z</time>
      </trkpt>
      <trkpt lat="56.804708" lon="13.953938">
        <ele>177.727</ele>
        <time>1970-01-01T01:00:00Z</time>
      </trkpt>
      <trkpt lat="56.804751" lon="13.953801">
        <ele>178.091</ele>
        <time>1970-01-01T01:00:00Z</time>
      </trkpt>
      <trkpt lat="56.80477" lon="13.953641">
        <ele>178.182</ele>
        <time>1970-01-01T01:00:00Z</time>
      </trkpt>
      <trkpt lat="56.80478" lon="13.953483">
        <ele>178.273</ele>
        <time>1970-01-01T01:00:00Z</time>
      </trkpt>
      <trkpt lat="56.804804" lon="13.953331">
        <ele>178.364</ele>
        <time>1970-01-01T01:00:00Z</time>
      </trkpt>
      <trkpt lat="56.804809" lon="13.953178">
        <ele>178.455</ele>
        <time>1970-01-01T01:00:00Z</time>
      </trkpt>
      <trkpt lat="56.804816" lon="13.953022">
        <ele>178.545</ele>
        <time>1970-01-01T01:00:00Z</time>
      </trkpt>
      <trkpt lat="56.80483" lon="13.952857">
        <ele>178.636</ele>
        <time>1970-01-01T01:00:00Z</time>
      </trkpt>
      <trkpt lat="56.804846" lon="13.952686">
        <ele>178.727</ele>
        <time>1970-01-01T01:00:00Z</time>
      </trkpt>
      <trkpt lat="56.804846" lon="13.952518">
        <ele>178.818</ele>
        <time>1970-01-01T01:00:00Z</time>
      </trkpt>
      <trkpt lat="56.804856" lon="13.952369">
        <ele>178.909</ele>
        <time>1970-01-01T01:00:00Z</time>
      </trkpt>
      <trkpt lat="56.804888" lon="13.952226">
        <ele>179</ele>
        <time>1970-01-01T01:00:00Z</time>
      </trkpt>
      <trkpt lat="56.804921" lon="13.952087">
        <ele>179</ele>
        <time>1970-01-01T01:00:00Z</time>
      </trkpt>
      <trkpt lat="56.804973" lon="13.951972">
        <ele>179</ele>
        <time>1970-01-01T01:00:00Z</time>
      </trkpt>
      <trkpt lat="56.80504" lon="13.951854">
        <ele>179.273</ele>
        <time>1970-01-01T01:00:00Z</time>
      </trkpt>
      <trkpt lat="56.805098" lon="13.951734">
        <ele>179.545</ele>
        <time>1970-01-01T01:00:00Z</time>
      </trkpt>
      <trkpt lat="56.805109" lon="13.951575">
        <ele>179.818</ele>
        <time>1970-01-01T01:00:00Z</time>
      </trkpt>
      <trkpt lat="56.80511" lon="13.951412">
        <ele>180.091</ele>
        <time>1970-01-01T01:00:00Z</time>
      </trkpt>
      <trkpt lat="56.805066" lon="13.951275">
        <ele>180.364</ele>
        <time>1970-01-01T01:00:00Z</time>
      </trkpt>
      <trkpt lat="56.805013" lon="13.951151">
        <ele>180.636</ele>
        <time>1970-01-01T01:00:00Z</time>
      </trkpt>
      <trkpt lat="56.804967" lon="13.950988">
        <ele>181.182</ele>
        <time>1970-01-01T01:00:00Z</time>
      </trkpt>
      <trkpt lat="56.804905" lon="13.950855">
        <ele>181.727</ele>
        <time>1970-01-01T01:00:00Z</time>
      </trkpt>
      <trkpt lat="56.804836" lon="13.950733">
        <ele>182.364</ele>
        <time>1970-01-01T01:00:00Z</time>
      </trkpt>
      <trkpt lat="56.804791" lon="13.950605">
        <ele>183</ele>
        <time>1970-01-01T01:00:00Z</time>
      </trkpt>
      <trkpt lat="56.804736" lon="13.950452">
        <ele>183.636</ele>
        <time>1970-01-01T01:00:00Z</time>
      </trkpt>
      <trkpt lat="56.804685" lon="13.950331">
        <ele>184.364</ele>
        <time>1970-01-01T01:00:00Z</time>
      </trkpt>
      <trkpt lat="56.804631" lon="13.95021">
        <ele>185.091</ele>
        <time>1970-01-01T01:00:00Z</time>
      </trkpt>
      <trkpt lat="56.804595" lon="13.950074">
        <ele>185.818</ele>
        <time>1970-01-01T01:00:00Z</time>
      </trkpt>
      <trkpt lat="56.804583" lon="13.949919">
        <ele>186.545</ele>
        <time>1970-01-01T01:00:00Z</time>
      </trkpt>
      <trkpt lat="56.804552" lon="13.949779">
        <ele>187.273</ele>
        <time>1970-01-01T01:00:00Z</time>
      </trkpt>
      <trkpt lat="56.80451" lon="13.949617">
        <ele>188</ele>
        <time>1970-01-01T01:00:00Z</time>
      </trkpt>
      <trkpt lat="56.804482" lon="13.949473">
        <ele>188.727</ele>
        <time>1970-01-01T01:00:00Z</time>
      </trkpt>
      <trkpt lat="56.804459" lon="13.949318">
        <ele>189.455</ele>
        <time>1970-01-01T01:00:00Z</time>
      </trkpt>
      <trkpt lat="56.804435" lon="13.949152">
        <ele>190.091</ele>
        <time>1970-01-01T01:00:00Z</time>
      </trkpt>
      <trkpt lat="56.804415" lon="13.948991">
        <ele>190.727</ele>
        <time>1970-01-01T01:00:00Z</time>
      </trkpt>
      <trkpt lat="56.804389" lon="13.94885">
        <ele>191.364</ele>
        <time>1970-01-01T01:00:00Z</time>
      </trkpt>
      <trkpt lat="56.804363" lon="13.94868">
        <ele>192</ele>
        <time>1970-01-01T01:00:00Z</time>
      </trkpt>
      <trkpt lat="56.804327" lon="13.94853">
        <ele>192.636</ele>
        <time>1970-01-01T01:00:00Z</time>
      </trkpt>
      <trkpt lat="56.804297" lon="13.948387">
        <ele>193.273</ele>
        <time>1970-01-01T01:00:00Z</time>
      </trkpt>
      <trkpt lat="56.804304" lon="13.948234">
        <ele>193.909</ele>
        <time>1970-01-01T01:00:00Z</time>
      </trkpt>
      <trkpt lat="56.804311" lon="13.948077">
        <ele>194.545</ele>
        <time>1970-01-01T01:00:00Z</time>
      </trkpt>
      <trkpt lat="56.804322" lon="13.947919">
        <ele>195.182</ele>
        <time>1970-01-01T01:00:00Z</time>
      </trkpt>
      <trkpt lat="56.804279" lon="13.947779">
        <ele>195.818</ele>
        <time>1970-01-01T01:00:00Z</time>
      </trkpt>
      <trkpt lat="56.804229" lon="13.947637">
        <ele>196.455</ele>
        <time>1970-01-01T01:00:00Z</time>
      </trkpt>
      <trkpt lat="56.804178" lon="13.947504">
        <ele>197.091</ele>
        <time>1970-01-01T01:00:00Z</time>
      </trkpt>
      <trkpt lat="56.80412" lon="13.947374">
        <ele>197.727</ele>
        <time>1970-01-01T01:00:00Z</time>
      </trkpt>
      <trkpt lat="56.804055" lon="13.947277">
        <ele>198.364</ele>
        <time>1970-01-01T01:00:00Z</time>
      </trkpt>
      <trkpt lat="56.804006" lon="13.947142">
        <ele>198.727</ele>
        <time>1970-01-01T01:00:00Z</time>
      </trkpt>
      <trkpt lat="56.803947" lon="13.947033">
        <ele>199.091</ele>
        <time>1970-01-01T01:00:00Z</time>
      </trkpt>
      <trkpt lat="56.803892" lon="13.946915">
        <ele>199.455</ele>
        <time>1970-01-01T01:00:00Z</time>
      </trkpt>
      <trkpt lat="56.803847" lon="13.946785">
        <ele>199.727</ele>
        <time>1970-01-01T01:00:00Z</time>
      </trkpt>
      <trkpt lat="56.803788" lon="13.946667">
        <ele>200</ele>
        <time>1970-01-01T01:00:00Z</time>
      </trkpt>
      <trkpt lat="56.803721" lon="13.946556">
        <ele>200.273</ele>
        <time>1970-01-01T01:00:00Z</time>
      </trkpt>
      <trkpt lat="56.803643" lon="13.946493">
        <ele>200.273</ele>
        <time>1970-01-01T01:00:00Z</time>
      </trkpt>
      <trkpt lat="56.803565" lon="13.946392">
        <ele>200.273</ele>
        <time>1970-01-01T01:00:00Z</time>
      </trkpt>
      <trkpt lat="56.803499" lon="13.946289">
        <ele>200.273</ele>
        <time>1970-01-01T01:00:00Z</time>
      </trkpt>
      <trkpt lat="56.803467" lon="13.946132">
        <ele>200.273</ele>
        <time>1970-01-01T01:00:00Z</time>
      </trkpt>
      <trkpt lat="56.803447" lon="13.945983">
        <ele>200.273</ele>
        <time>1970-01-01T01:00:00Z</time>
      </trkpt>
      <trkpt lat="56.80343" lon="13.945827">
        <ele>200.182</ele>
        <time>1970-01-01T01:00:00Z</time>
      </trkpt>
      <trkpt lat="56.803413" lon="13.945666">
        <ele>200.091</ele>
        <time>1970-01-01T01:00:00Z</time>
      </trkpt>
      <trkpt lat="56.803392" lon="13.94549">
        <ele>200</ele>
        <time>1970-01-01T01:00:00Z</time>
      </trkpt>
      <trkpt lat="56.803381" lon="13.945305">
        <ele>200</ele>
        <time>1970-01-01T01:00:00Z</time>
      </trkpt>
      <trkpt lat="56.803382" lon="13.945154">
        <ele>200</ele>
        <time>1970-01-01T01:00:00Z</time>
      </trkpt>
      <trkpt lat="56.803378" lon="13.944985">
        <ele>200</ele>
        <time>1970-01-01T01:00:00Z</time>
      </trkpt>
      <trkpt lat="56.803362" lon="13.944812">
        <ele>200</ele>
        <time>1970-01-01T01:00:00Z</time>
      </trkpt>
      <trkpt lat="56.803337" lon="13.944656">
        <ele>200</ele>
        <time>1970-01-01T01:00:00Z</time>
      </trkpt>
      <trkpt lat="56.803329" lon="13.94449">
        <ele>200</ele>
        <time>1970-01-01T01:00:00Z</time>
      </trkpt>
      <trkpt lat="56.803317" lon="13.944338">
        <ele>200</ele>
        <time>1970-01-01T01:00:00Z</time>
      </trkpt>
      <trkpt lat="56.803307" lon="13.944188">
        <ele>200</ele>
        <time>1970-01-01T01:00:00Z</time>
      </trkpt>
      <trkpt lat="56.803289" lon="13.944035">
        <ele>200</ele>
        <time>1970-01-01T01:00:00Z</time>
      </trkpt>
      <trkpt lat="56.803258" lon="13.943873">
        <ele>200</ele>
        <time>1970-01-01T01:00:00Z</time>
      </trkpt>
      <trkpt lat="56.803227" lon="13.943717">
        <ele>199.636</ele>
        <time>1970-01-01T01:00:00Z</time>
      </trkpt>
      <trkpt lat="56.803214" lon="13.943553">
        <ele>199.273</ele>
        <time>1970-01-01T01:00:00Z</time>
      </trkpt>
      <trkpt lat="56.803202" lon="13.943404">
        <ele>198.909</ele>
        <time>1970-01-01T01:00:00Z</time>
      </trkpt>
      <trkpt lat="56.803205" lon="13.943255">
        <ele>198.545</ele>
        <time>1970-01-01T01:00:00Z</time>
      </trkpt>
      <trkpt lat="56.803203" lon="13.943083">
        <ele>198.182</ele>
        <time>1970-01-01T01:00:00Z</time>
      </trkpt>
      <trkpt lat="56.803211" lon="13.942925">
        <ele>197.818</ele>
        <time>1970-01-01T01:00:00Z</time>
      </trkpt>
      <trkpt lat="56.803181" lon="13.942768">
        <ele>197.182</ele>
        <time>1970-01-01T01:00:00Z</time>
      </trkpt>
      <trkpt lat="56.803151" lon="13.942624">
        <ele>196.545</ele>
        <time>1970-01-01T01:00:00Z</time>
      </trkpt>
      <trkpt lat="56.803111" lon="13.942457">
        <ele>195.909</ele>
        <time>1970-01-01T01:00:00Z</time>
      </trkpt>
      <trkpt lat="56.803075" lon="13.942302">
        <ele>195.273</ele>
        <time>1970-01-01T01:00:00Z</time>
      </trkpt>
      <trkpt lat="56.803045" lon="13.94214">
        <ele>194.636</ele>
        <time>1970-01-01T01:00:00Z</time>
      </trkpt>
      <trkpt lat="56.80301" lon="13.941982">
        <ele>194.273</ele>
        <time>1970-01-01T01:00:00Z</time>
      </trkpt>
      <trkpt lat="56.802992" lon="13.94183">
        <ele>193.909</ele>
        <time>1970-01-01T01:00:00Z</time>
      </trkpt>
      <trkpt lat="56.80298" lon="13.94168">
        <ele>193.545</ele>
        <time>1970-01-01T01:00:00Z</time>
      </trkpt>
      <trkpt lat="56.802964" lon="13.9415">
        <ele>193.182</ele>
        <time>1970-01-01T01:00:00Z</time>
      </trkpt>
      <trkpt lat="56.802952" lon="13.941326">
        <ele>192.818</ele>
        <time>1970-01-01T01:00:00Z</time>
      </trkpt>
      <trkpt lat="56.802969" lon="13.941164">
        <ele>192.364</ele>
        <time>1970-01-01T01:00:00Z</time>
      </trkpt>
      <trkpt lat="56.802984" lon="13.941001">
        <ele>192.182</ele>
        <time>1970-01-01T01:00:00Z</time>
      </trkpt>
      <trkpt lat="56.802995" lon="13.940841">
        <ele>192</ele>
        <time>1970-01-01T01:00:00Z</time>
      </trkpt>
      <trkpt lat="56.803001" lon="13.94067">
        <ele>191.818</ele>
        <time>1970-01-01T01:00:00Z</time>
      </trkpt>
      <trkpt lat="56.802995" lon="13.940519">
        <ele>191.636</ele>
        <time>1970-01-01T01:00:00Z</time>
      </trkpt>
      <trkpt lat="56.803005" lon="13.940358">
        <ele>191.455</ele>
        <time>1970-01-01T01:00:00Z</time>
      </trkpt>
      <trkpt lat="56.803017" lon="13.940184">
        <ele>191.364</ele>
        <time>1970-01-01T01:00:00Z</time>
      </trkpt>
      <trkpt lat="56.803056" lon="13.940049">
        <ele>191.273</ele>
        <time>1970-01-01T01:00:00Z</time>
      </trkpt>
      <trkpt lat="56.803123" lon="13.939937">
        <ele>191.182</ele>
        <time>1970-01-01T01:00:00Z</time>
      </trkpt>
      <trkpt lat="56.803198" lon="13.93986">
        <ele>190.909</ele>
        <time>1970-01-01T01:00:00Z</time>
      </trkpt>
      <trkpt lat="56.803289" lon="13.939785">
        <ele>190.636</ele>
        <time>1970-01-01T01:00:00Z</time>
      </trkpt>
      <trkpt lat="56.803368" lon="13.93972">
        <ele>190</ele>
        <time>1970-01-01T01:00:00Z</time>
      </trkpt>
      <trkpt lat="56.803456" lon="13.939668">
        <ele>189.364</ele>
        <time>1970-01-01T01:00:00Z</time>
      </trkpt>
      <trkpt lat="56.803552" lon="13.939645">
        <ele>188.727</ele>
        <time>1970-01-01T01:00:00Z</time>
      </trkpt>
      <trkpt lat="56.803633" lon="13.939579">
        <ele>188.091</ele>
        <time>1970-01-01T01:00:00Z</time>
      </trkpt>
      <trkpt lat="56.803728" lon="13.939553">
        <ele>187.455</ele>
        <time>1970-01-01T01:00:00Z</time>
      </trkpt>
      <trkpt lat="56.80382" lon="13.939553">
        <ele>186.818</ele>
        <time>1970-01-01T01:00:00Z</time>
      </trkpt>
      <trkpt lat="56.803914" lon="13.939551">
        <ele>186.182</ele>
        <time>1970-01-01T01:00:00Z</time>
      </trkpt>
      <trkpt lat="56.804006" lon="13.939548">
        <ele>185.545</ele>
        <time>1970-01-01T01:00:00Z</time>
      </trkpt>
      <trkpt lat="56.80409" lon="13.939553">
        <ele>184.909</ele>
        <time>1970-01-01T01:00:00Z</time>
      </trkpt>
      <trkpt lat="56.804179" lon="13.939553">
        <ele>184.364</ele>
        <time>1970-01-01T01:00:00Z</time>
      </trkpt>
      <trkpt lat="56.804274" lon="13.939559">
        <ele>183.818</ele>
        <time>1970-01-01T01:00:00Z</time>
      </trkpt>
      <trkpt lat="56.804367" lon="13.939577">
        <ele>183.727</ele>
        <time>1970-01-01T01:00:00Z</time>
      </trkpt>
      <trkpt lat="56.804458" lon="13.939585">
        <ele>183.636</ele>
        <time>1970-01-01T01:00:00Z</time>
      </trkpt>
      <trkpt lat="56.804544" lon="13.939574">
        <ele>183.545</ele>
        <time>1970-01-01T01:00:00Z</time>
      </trkpt>
      <trkpt lat="56.804628" lon="13.939528">
        <ele>183.455</ele>
        <time>1970-01-01T01:00:00Z</time>
      </trkpt>
      <trkpt lat="56.804702" lon="13.939458">
        <ele>183.364</ele>
        <time>1970-01-01T01:00:00Z</time>
      </trkpt>
      <trkpt lat="56.804765" lon="13.939359">
        <ele>183.273</ele>
        <time>1970-01-01T01:00:00Z</time>
      </trkpt>
      <trkpt lat="56.804826" lon="13.93922">
        <ele>183.182</ele>
        <time>1970-01-01T01:00:00Z</time>
      </trkpt>
      <trkpt lat="56.80487" lon="13.939092">
        <ele>183.091</ele>
        <time>1970-01-01T01:00:00Z</time>
      </trkpt>
      <trkpt lat="56.804904" lon="13.938935">
        <ele>183</ele>
        <time>1970-01-01T01:00:00Z</time>
      </trkpt>
      <trkpt lat="56.804941" lon="13.93878">
        <ele>183</ele>
        <time>1970-01-01T01:00:00Z</time>
      </trkpt>
      <trkpt lat="56.804994" lon="13.93864">
        <ele>183</ele>
        <time>1970-01-01T01:00:00Z</time>
      </trkpt>
      <trkpt lat="56.805068" lon="13.938572">
        <ele>182.909</ele>
        <time>1970-01-01T01:00:00Z</time>
      </trkpt>
      <trkpt lat="56.805157" lon="13.938532">
        <ele>182.818</ele>
        <time>1970-01-01T01:00:00Z</time>
      </trkpt>
      <trkpt lat="56.805255" lon="13.938489">
        <ele>182.727</ele>
        <time>1970-01-01T01:00:00Z</time>
      </trkpt>
      <trkpt lat="56.805338" lon="13.938451">
        <ele>182.636</ele>
        <time>1970-01-01T01:00:00Z</time>
      </trkpt>
      <trkpt lat="56.805425" lon="13.938432">
        <ele>182.545</ele>
        <time>1970-01-01T01:00:00Z</time>
      </trkpt>
      <trkpt lat="56.805513" lon="13.938381">
        <ele>182.455</ele>
        <time>1970-01-01T01:00:00Z</time>
      </trkpt>
      <trkpt lat="56.805607" lon="13.938363">
        <ele>182.364</ele>
        <time>1970-01-01T01:00:00Z</time>
      </trkpt>
      <trkpt lat="56.805698" lon="13.938339">
        <ele>182.091</ele>
        <time>1970-01-01T01:00:00Z</time>
      </trkpt>
      <trkpt lat="56.805787" lon="13.93831">
        <ele>181.818</ele>
        <time>1970-01-01T01:00:00Z</time>
      </trkpt>
      <trkpt lat="56.805863" lon="13.93824">
        <ele>181.545</ele>
        <time>1970-01-01T01:00:00Z</time>
      </trkpt>
      <trkpt lat="56.805933" lon="13.938145">
        <ele>181</ele>
        <time>1970-01-01T01:00:00Z</time>
      </trkpt>
      <trkpt lat="56.806009" lon="13.93803">
        <ele>180.545</ele>
        <time>1970-01-01T01:00:00Z</time>
      </trkpt>
      <trkpt lat="56.806073" lon="13.937924">
        <ele>180.091</ele>
        <time>1970-01-01T01:00:00Z</time>
      </trkpt>
      <trkpt lat="56.806131" lon="13.937817">
        <ele>179.636</ele>
        <time>1970-01-01T01:00:00Z</time>
      </trkpt>
      <trkpt lat="56.806208" lon="13.937715">
        <ele>179.182</ele>
        <time>1970-01-01T01:00:00Z</time>
      </trkpt>
      <trkpt lat="56.806275" lon="13.937617">
        <ele>178.727</ele>
        <time>1970-01-01T01:00:00Z</time>
      </trkpt>
      <trkpt lat="56.806344" lon="13.937522">
        <ele>178.273</ele>
        <time>1970-01-01T01:00:00Z</time>
      </trkpt>
      <trkpt lat="56.80642" lon="13.937469">
        <ele>177.818</ele>
        <time>1970-01-01T01:00:00Z</time>
      </trkpt>
      <trkpt lat="56.80651" lon="13.937421">
        <ele>177.545</ele>
        <time>1970-01-01T01:00:00Z</time>
      </trkpt>
      <trkpt lat="56.806591" lon="13.937413">
        <ele>177.273</ele>
        <time>1970-01-01T01:00:00Z</time>
      </trkpt>
      <trkpt lat="56.806673" lon="13.937414">
        <ele>177</ele>
        <time>1970-01-01T01:00:00Z</time>
      </trkpt>
      <trkpt lat="56.806759" lon="13.93742">
        <ele>176.818</ele>
        <time>1970-01-01T01:00:00Z</time>
      </trkpt>
      <trkpt lat="56.806842" lon="13.937456">
        <ele>176.636</ele>
        <time>1970-01-01T01:00:00Z</time>
      </trkpt>
      <trkpt lat="56.806927" lon="13.937504">
        <ele>176.455</ele>
        <time>1970-01-01T01:00:00Z</time>
      </trkpt>
      <trkpt lat="56.807001" lon="13.937565">
        <ele>176.273</ele>
        <time>1970-01-01T01:00:00Z</time>
      </trkpt>
      <trkpt lat="56.807086" lon="13.937617">
        <ele>176.091</ele>
        <time>1970-01-01T01:00:00Z</time>
      </trkpt>
      <trkpt lat="56.807168" lon="13.937625">
        <ele>175.909</ele>
        <time>1970-01-01T01:00:00Z</time>
      </trkpt>
      <trkpt lat="56.807257" lon="13.937652">
        <ele>175.727</ele>
        <time>1970-01-01T01:00:00Z</time>
      </trkpt>
      <trkpt lat="56.807347" lon="13.937671">
        <ele>175.545</ele>
        <time>1970-01-01T01:00:00Z</time>
      </trkpt>
      <trkpt lat="56.80743" lon="13.937693">
        <ele>175.364</ele>
        <time>1970-01-01T01:00:00Z</time>
      </trkpt>
      <trkpt lat="56.807514" lon="13.937736">
        <ele>175.182</ele>
        <time>1970-01-01T01:00:00Z</time>
      </trkpt>
      <trkpt lat="56.807597" lon="13.937733">
        <ele>174.727</ele>
        <time>1970-01-01T01:00:00Z</time>
      </trkpt>
      <trkpt lat="56.807693" lon="13.937755">
        <ele>174.455</ele>
        <time>1970-01-01T01:00:00Z</time>
      </trkpt>
      <trkpt lat="56.807789" lon="13.937776">
        <ele>174.182</ele>
        <time>1970-01-01T01:00:00Z</time>
      </trkpt>
      <trkpt lat="56.807868" lon="13.937742">
        <ele>173.909</ele>
        <time>1970-01-01T01:00:00Z</time>
      </trkpt>
      <trkpt lat="56.807959" lon="13.937786">
        <ele>173.636</ele>
        <time>1970-01-01T01:00:00Z</time>
      </trkpt>
      <trkpt lat="56.808053" lon="13.937814">
        <ele>173.364</ele>
        <time>1970-01-01T01:00:00Z</time>
      </trkpt>
      <trkpt lat="56.808148" lon="13.937846">
        <ele>173.182</ele>
        <time>1970-01-01T01:00:00Z</time>
      </trkpt>
      <trkpt lat="56.808231" lon="13.937879">
        <ele>173</ele>
        <time>1970-01-01T01:00:00Z</time>
      </trkpt>
      <trkpt lat="56.808325" lon="13.937892">
        <ele>172.818</ele>
        <time>1970-01-01T01:00:00Z</time>
      </trkpt>
      <trkpt lat="56.808422" lon="13.937916">
        <ele>172.818</ele>
        <time>1970-01-01T01:00:00Z</time>
      </trkpt>
      <trkpt lat="56.808515" lon="13.937947">
        <ele>172.818</ele>
        <time>1970-01-01T01:00:00Z</time>
      </trkpt>
      <trkpt lat="56.808609" lon="13.937994">
        <ele>173.091</ele>
        <time>1970-01-01T01:00:00Z</time>
      </trkpt>
      <trkpt lat="56.808687" lon="13.938048">
        <ele>173.364</ele>
        <time>1970-01-01T01:00:00Z</time>
      </trkpt>
      <trkpt lat="56.808776" lon="13.938123">
        <ele>173.636</ele>
        <time>1970-01-01T01:00:00Z</time>
      </trkpt>
      <trkpt lat="56.808857" lon="13.938204">
        <ele>173.909</ele>
        <time>1970-01-01T01:00:00Z</time>
      </trkpt>
      <trkpt lat="56.808941" lon="13.938296">
        <ele>174.182</ele>
        <time>1970-01-01T01:00:00Z</time>
      </trkpt>
      <trkpt lat="56.80901" lon="13.938387">
        <ele>174.455</ele>
        <time>1970-01-01T01:00:00Z</time>
      </trkpt>
      <trkpt lat="56.809076" lon="13.93848">
        <ele>174.636</ele>
        <time>1970-01-01T01:00:00Z</time>
      </trkpt>
      <trkpt lat="56.809146" lon="13.938567">
        <ele>174.818</ele>
        <time>1970-01-01T01:00:00Z</time>
      </trkpt>
      <trkpt lat="56.80922" lon="13.938658">
        <ele>175</ele>
        <time>1970-01-01T01:00:00Z</time>
      </trkpt>
      <trkpt lat="56.809284" lon="13.93876">
        <ele>174.909</ele>
        <time>1970-01-01T01:00:00Z</time>
      </trkpt>
      <trkpt lat="56.809351" lon="13.938874">
        <ele>174.818</ele>
        <time>1970-01-01T01:00:00Z</time>
      </trkpt>
      <trkpt lat="56.809421" lon="13.93898">
        <ele>174.727</ele>
        <time>1970-01-01T01:00:00Z</time>
      </trkpt>
      <trkpt lat="56.809492" lon="13.939092">
        <ele>174.636</ele>
        <time>1970-01-01T01:00:00Z</time>
      </trkpt>
      <trkpt lat="56.809559" lon="13.939187">
        <ele>174.545</ele>
        <time>1970-01-01T01:00:00Z</time>
      </trkpt>
      <trkpt lat="56.809631" lon="13.939275">
        <ele>174.455</ele>
        <time>1970-01-01T01:00:00Z</time>
      </trkpt>
      <trkpt lat="56.809699" lon="13.939384">
        <ele>174.364</ele>
        <time>1970-01-01T01:00:00Z</time>
      </trkpt>
      <trkpt lat="56.809765" lon="13.93947">
        <ele>174.273</ele>
        <time>1970-01-01T01:00:00Z</time>
      </trkpt>
      <trkpt lat="56.809835" lon="13.939576">
        <ele>174.182</ele>
        <time>1970-01-01T01:00:00Z</time>
      </trkpt>
      <trkpt lat="56.809899" lon="13.93969">
        <ele>174.091</ele>
        <time>1970-01-01T01:00:00Z</time>
      </trkpt>
      <trkpt lat="56.809956" lon="13.9398">
        <ele>174</ele>
        <time>1970-01-01T01:00:00Z</time>
      </trkpt>
      <trkpt lat="56.810031" lon="13.939897">
        <ele>174.182</ele>
        <time>1970-01-01T01:00:00Z</time>
      </trkpt>
      <trkpt lat="56.810103" lon="13.940025">
        <ele>174.273</ele>
        <time>1970-01-01T01:00:00Z</time>
      </trkpt>
      <trkpt lat="56.810168" lon="13.940145">
        <ele>174.364</ele>
        <time>1970-01-01T01:00:00Z</time>
      </trkpt>
      <trkpt lat="56.810233" lon="13.94024">
        <ele>174.455</ele>
        <time>1970-01-01T01:00:00Z</time>
      </trkpt>
      <trkpt lat="56.810309" lon="13.940342">
        <ele>174.545</ele>
        <time>1970-01-01T01:00:00Z</time>
      </trkpt>
      <trkpt lat="56.810389" lon="13.940448">
        <ele>174.636</ele>
        <time>1970-01-01T01:00:00Z</time>
      </trkpt>
      <trkpt lat="56.810464" lon="13.940508">
        <ele>174.727</ele>
        <time>1970-01-01T01:00:00Z</time>
      </trkpt>
      <trkpt lat="56.810554" lon="13.940561">
        <ele>174.818</ele>
        <time>1970-01-01T01:00:00Z</time>
      </trkpt>
      <trkpt lat="56.810638" lon="13.940595">
        <ele>174.909</ele>
        <time>1970-01-01T01:00:00Z</time>
      </trkpt>
      <trkpt lat="56.810729" lon="13.940656">
        <ele>175</ele>
        <time>1970-01-01T01:00:00Z</time>
      </trkpt>
      <trkpt lat="56.810815" lon="13.940691">
        <ele>175.091</ele>
        <time>1970-01-01T01:00:00Z</time>
      </trkpt>
      <trkpt lat="56.810896" lon="13.940736">
        <ele>175</ele>
        <time>1970-01-01T01:00:00Z</time>
      </trkpt>
      <trkpt lat="56.810974" lon="13.940776">
        <ele>175</ele>
        <time>1970-01-01T01:00:00Z</time>
      </trkpt>
      <trkpt lat="56.811054" lon="13.94081">
        <ele>175</ele>
        <time>1970-01-01T01:00:00Z</time>
      </trkpt>
      <trkpt lat="56.811146" lon="13.940843">
        <ele>175</ele>
        <time>1970-01-01T01:00:00Z</time>
      </trkpt>
      <trkpt lat="56.811232" lon="13.940865">
        <ele>175</ele>
        <time>1970-01-01T01:00:00Z</time>
      </trkpt>
      <trkpt lat="56.811318" lon="13.940891">
        <ele>175</ele>
        <time>1970-01-01T01:00:00Z</time>
      </trkpt>
      <trkpt lat="56.81141" lon="13.940916">
        <ele>175</ele>
        <time>1970-01-01T01:00:00Z</time>
      </trkpt>
      <trkpt lat="56.811491" lon="13.94095">
        <ele>175</ele>
        <time>1970-01-01T01:00:00Z</time>
      </trkpt>
      <trkpt lat="56.811579" lon="13.940991">
        <ele>175</ele>
        <time>1970-01-01T01:00:00Z</time>
      </trkpt>
      <trkpt lat="56.811658" lon="13.94102">
        <ele>175.091</ele>
        <time>1970-01-01T01:00:00Z</time>
      </trkpt>
      <trkpt lat="56.811739" lon="13.941057">
        <ele>175.182</ele>
        <time>1970-01-01T01:00:00Z</time>
      </trkpt>
      <trkpt lat="56.811824" lon="13.941108">
        <ele>175.364</ele>
        <time>1970-01-01T01:00:00Z</time>
      </trkpt>
      <trkpt lat="56.811905" lon="13.941176">
        <ele>175.545</ele>
        <time>1970-01-01T01:00:00Z</time>
      </trkpt>
      <trkpt lat="56.811984" lon="13.941226">
        <ele>175.727</ele>
        <time>1970-01-01T01:00:00Z</time>
      </trkpt>
      <trkpt lat="56.812052" lon="13.941319">
        <ele>175.909</ele>
        <time>1970-01-01T01:00:00Z</time>
      </trkpt>
      <trkpt lat="56.81213" lon="13.941368">
        <ele>176.091</ele>
        <time>1970-01-01T01:00:00Z</time>
      </trkpt>
      <trkpt lat="56.812219" lon="13.941421">
        <ele>176.273</ele>
        <time>1970-01-01T01:00:00Z</time>
      </trkpt>
      <trkpt lat="56.812298" lon="13.941479">
        <ele>176.455</ele>
        <time>1970-01-01T01:00:00Z</time>
      </trkpt>
      <trkpt lat="56.812388" lon="13.941533">
        <ele>176.636</ele>
        <time>1970-01-01T01:00:00Z</time>
      </trkpt>
      <trkpt lat="56.812466" lon="13.941589">
        <ele>176.818</ele>
        <time>1970-01-01T01:00:00Z</time>
      </trkpt>
      <trkpt lat="56.812549" lon="13.941638">
        <ele>176.909</ele>
        <time>1970-01-01T01:00:00Z</time>
      </trkpt>
      <trkpt lat="56.812632" lon="13.941681">
        <ele>177.091</ele>
        <time>1970-01-01T01:00:00Z</time>
      </trkpt>
      <trkpt lat="56.812713" lon="13.941714">
        <ele>177.182</ele>
        <time>1970-01-01T01:00:00Z</time>
      </trkpt>
      <trkpt lat="56.812794" lon="13.941749">
        <ele>177.273</ele>
        <time>1970-01-01T01:00:00Z</time>
      </trkpt>
      <trkpt lat="56.812873" lon="13.941802">
        <ele>177.364</ele>
        <time>1970-01-01T01:00:00Z</time>
      </trkpt>
      <trkpt lat="56.812952" lon="13.941878">
        <ele>177.455</ele>
        <time>1970-01-01T01:00:00Z</time>
      </trkpt>
      <trkpt lat="56.813036" lon="13.941938">
        <ele>177.545</ele>
        <time>1970-01-01T01:00:00Z</time>
      </trkpt>
      <trkpt lat="56.813113" lon="13.941992">
        <ele>177.636</ele>
        <time>1970-01-01T01:00:00Z</time>
      </trkpt>
      <trkpt lat="56.813199" lon="13.942068">
        <ele>177.727</ele>
        <time>1970-01-01T01:00:00Z</time>
      </trkpt>
      <trkpt lat="56.813281" lon="13.942151">
        <ele>177.818</ele>
        <time>1970-01-01T01:00:00Z</time>
      </trkpt>
      <trkpt lat="56.813363" lon="13.942237">
        <ele>177.909</ele>
        <time>1970-01-01T01:00:00Z</time>
      </trkpt>
      <trkpt lat="56.813442" lon="13.942326">
        <ele>178</ele>
        <time>1970-01-01T01:00:00Z</time>
      </trkpt>
      <trkpt lat="56.813518" lon="13.942423">
        <ele>178.091</ele>
        <time>1970-01-01T01:00:00Z</time>
      </trkpt>
      <trkpt lat="56.813566" lon="13.942557">
        <ele>178.182</ele>
        <time>1970-01-01T01:00:00Z</time>
      </trkpt>
      <trkpt lat="56.813603" lon="13.942709">
        <ele>178.273</ele>
        <time>1970-01-01T01:00:00Z</time>
      </trkpt>
      <trkpt lat="56.813646" lon="13.942847">
        <ele>178.364</ele>
        <time>1970-01-01T01:00:00Z</time>
      </trkpt>
      <trkpt lat="56.813675" lon="13.943009">
        <ele>178.455</ele>
        <time>1970-01-01T01:00:00Z</time>
      </trkpt>
      <trkpt lat="56.813703" lon="13.94317">
        <ele>178.455</ele>
        <time>1970-01-01T01:00:00Z</time>
      </trkpt>
      <trkpt lat="56.813755" lon="13.943289">
        <ele>178.455</ele>
        <time>1970-01-01T01:00:00Z</time>
      </trkpt>
      <trkpt lat="56.813802" lon="13.943423">
        <ele>178.455</ele>
        <time>1970-01-01T01:00:00Z</time>
      </trkpt>
      <trkpt lat="56.813848" lon="13.943585">
        <ele>178.455</ele>
        <time>1970-01-01T01:00:00Z</time>
      </trkpt>
      <trkpt lat="56.813894" lon="13.943747">
        <ele>178.455</ele>
        <time>1970-01-01T01:00:00Z</time>
      </trkpt>
      <trkpt lat="56.813932" lon="13.943883">
        <ele>178.455</ele>
        <time>1970-01-01T01:00:00Z</time>
      </trkpt>
      <trkpt lat="56.813971" lon="13.944026">
        <ele>178.273</ele>
        <time>1970-01-01T01:00:00Z</time>
      </trkpt>
      <trkpt lat="56.814007" lon="13.944176">
        <ele>178.091</ele>
        <time>1970-01-01T01:00:00Z</time>
      </trkpt>
      <trkpt lat="56.814049" lon="13.94433">
        <ele>177.909</ele>
        <time>1970-01-01T01:00:00Z</time>
      </trkpt>
      <trkpt lat="56.814099" lon="13.944453">
        <ele>177.727</ele>
        <time>1970-01-01T01:00:00Z</time>
      </trkpt>
      <trkpt lat="56.814147" lon="13.944601">
        <ele>177.545</ele>
        <time>1970-01-01T01:00:00Z</time>
      </trkpt>
      <trkpt lat="56.814192" lon="13.944733">
        <ele>177.455</ele>
        <time>1970-01-01T01:00:00Z</time>
      </trkpt>
      <trkpt lat="56.814241" lon="13.944873">
        <ele>177.364</ele>
        <time>1970-01-01T01:00:00Z</time>
      </trkpt>
      <trkpt lat="56.814286" lon="13.945026">
        <ele>177.273</ele>
        <time>1970-01-01T01:00:00Z</time>
      </trkpt>
      <trkpt lat="56.814318" lon="13.945175">
        <ele>177.182</ele>
        <time>1970-01-01T01:00:00Z</time>
      </trkpt>
      <trkpt lat="56.814352" lon="13.945317">
        <ele>177.091</ele>
        <time>1970-01-01T01:00:00Z</time>
      </trkpt>
      <trkpt lat="56.814408" lon="13.945437">
        <ele>177</ele>
        <time>1970-01-01T01:00:00Z</time>
      </trkpt>
      <trkpt lat="56.814447" lon="13.945569">
        <ele>176.909</ele>
        <time>1970-01-01T01:00:00Z</time>
      </trkpt>
      <trkpt lat="56.814477" lon="13.945713">
        <ele>176.727</ele>
        <time>1970-01-01T01:00:00Z</time>
      </trkpt>
      <trkpt lat="56.814517" lon="13.945855">
        <ele>176.545</ele>
        <time>1970-01-01T01:00:00Z</time>
      </trkpt>
      <trkpt lat="56.814554" lon="13.946019">
        <ele>176.364</ele>
        <time>1970-01-01T01:00:00Z</time>
      </trkpt>
      <trkpt lat="56.814593" lon="13.94618">
        <ele>176.182</ele>
        <time>1970-01-01T01:00:00Z</time>
      </trkpt>
      <trkpt lat="56.814627" lon="13.946329">
        <ele>176</ele>
        <time>1970-01-01T01:00:00Z</time>
      </trkpt>
      <trkpt lat="56.814662" lon="13.94647">
        <ele>175.636</ele>
        <time>1970-01-01T01:00:00Z</time>
      </trkpt>
      <trkpt lat="56.814699" lon="13.946628">
        <ele>175.273</ele>
        <time>1970-01-01T01:00:00Z</time>
      </trkpt>
      <trkpt lat="56.814735" lon="13.946766">
        <ele>174.909</ele>
        <time>1970-01-01T01:00:00Z</time>
      </trkpt>
      <trkpt lat="56.814777" lon="13.946927">
        <ele>174.545</ele>
        <time>1970-01-01T01:00:00Z</time>
      </trkpt>
      <trkpt lat="56.814813" lon="13.947067">
        <ele>174.182</ele>
        <time>1970-01-01T01:00:00Z</time>
      </trkpt>
      <trkpt lat="56.814838" lon="13.947241">
        <ele>173.727</ele>
        <time>1970-01-01T01:00:00Z</time>
      </trkpt>
      <trkpt lat="56.814859" lon="13.947395">
        <ele>173.364</ele>
        <time>1970-01-01T01:00:00Z</time>
      </trkpt>
      <trkpt lat="56.814881" lon="13.947541">
        <ele>173</ele>
        <time>1970-01-01T01:00:00Z</time>
      </trkpt>
      <trkpt lat="56.814917" lon="13.947682">
        <ele>172.636</ele>
        <time>1970-01-01T01:00:00Z</time>
      </trkpt>
      <trkpt lat="56.81495" lon="13.94782">
        <ele>172.273</ele>
        <time>1970-01-01T01:00:00Z</time>
      </trkpt>
      <trkpt lat="56.814989" lon="13.947977">
        <ele>171.909</ele>
        <time>1970-01-01T01:00:00Z</time>
      </trkpt>
      <trkpt lat="56.815039" lon="13.948143">
        <ele>171.818</ele>
        <time>1970-01-01T01:00:00Z</time>
      </trkpt>
      <trkpt lat="56.815075" lon="13.948301">
        <ele>171.727</ele>
        <time>1970-01-01T01:00:00Z</time>
      </trkpt>
      <trkpt lat="56.815113" lon="13.948483">
        <ele>171.636</ele>
        <time>1970-01-01T01:00:00Z</time>
      </trkpt>
      <trkpt lat="56.815152" lon="13.948612">
        <ele>171.545</ele>
        <time>1970-01-01T01:00:00Z</time>
      </trkpt>
      <trkpt lat="56.815183" lon="13.948768">
        <ele>171.455</ele>
        <time>1970-01-01T01:00:00Z</time>
      </trkpt>
      <trkpt lat="56.815213" lon="13.948929">
        <ele>171.727</ele>
        <time>1970-01-01T01:00:00Z</time>
      </trkpt>
      <trkpt lat="56.815258" lon="13.949092">
        <ele>172</ele>
        <time>1970-01-01T01:00:00Z</time>
      </trkpt>
      <trkpt lat="56.815273" lon="13.949239">
        <ele>172.273</ele>
        <time>1970-01-01T01:00:00Z</time>
      </trkpt>
      <trkpt lat="56.815293" lon="13.949396">
        <ele>172.545</ele>
        <time>1970-01-01T01:00:00Z</time>
      </trkpt>
      <trkpt lat="56.815321" lon="13.949568">
        <ele>172.818</ele>
        <time>1970-01-01T01:00:00Z</time>
      </trkpt>
      <trkpt lat="56.815349" lon="13.949721">
        <ele>172.909</ele>
        <time>1970-01-01T01:00:00Z</time>
      </trkpt>
      <trkpt lat="56.815388" lon="13.949855">
        <ele>172.909</ele>
        <time>1970-01-01T01:00:00Z</time>
      </trkpt>
      <trkpt lat="56.815419" lon="13.950037">
        <ele>172.909</ele>
        <time>1970-01-01T01:00:00Z</time>
      </trkpt>
      <trkpt lat="56.81545" lon="13.950184">
        <ele>172.909</ele>
        <time>1970-01-01T01:00:00Z</time>
      </trkpt>
      <trkpt lat="56.815492" lon="13.950323">
        <ele>172.909</ele>
        <time>1970-01-01T01:00:00Z</time>
      </trkpt>
      <trkpt lat="56.815533" lon="13.950466">
        <ele>172.909</ele>
        <time>1970-01-01T01:00:00Z</time>
      </trkpt>
      <trkpt lat="56.815565" lon="13.950629">
        <ele>172.545</ele>
        <time>1970-01-01T01:00:00Z</time>
      </trkpt>
      <trkpt lat="56.815588" lon="13.950796">
        <ele>172.182</ele>
        <time>1970-01-01T01:00:00Z</time>
      </trkpt>
      <trkpt lat="56.815616" lon="13.950951">
        <ele>171.818</ele>
        <time>1970-01-01T01:00:00Z</time>
      </trkpt>
      <trkpt lat="56.815637" lon="13.951098">
        <ele>171.455</ele>
        <time>1970-01-01T01:00:00Z</time>
      </trkpt>
      <trkpt lat="56.815666" lon="13.95125">
        <ele>171.091</ele>
        <time>1970-01-01T01:00:00Z</time>
      </trkpt>
      <trkpt lat="56.815709" lon="13.95138">
        <ele>170.818</ele>
        <time>1970-01-01T01:00:00Z</time>
      </trkpt>
      <trkpt lat="56.815742" lon="13.951539">
        <ele>170.545</ele>
        <time>1970-01-01T01:00:00Z</time>
      </trkpt>
      <trkpt lat="56.815747" lon="13.951703">
        <ele>170.273</ele>
        <time>1970-01-01T01:00:00Z</time>
      </trkpt>
      <trkpt lat="56.815786" lon="13.951869">
        <ele>170</ele>
        <time>1970-01-01T01:00:00Z</time>
      </trkpt>
      <trkpt lat="56.815796" lon="13.952019">
        <ele>169.818</ele>
        <time>1970-01-01T01:00:00Z</time>
      </trkpt>
      <trkpt lat="56.815737" lon="13.952137">
        <ele>169.636</ele>
        <time>1970-01-01T01:00:00Z</time>
      </trkpt>
      <trkpt lat="56.815658" lon="13.952204">
        <ele>169.636</ele>
        <time>1970-01-01T01:00:00Z</time>
      </trkpt>
      <trkpt lat="56.815572" lon="13.952235">
        <ele>169.636</ele>
        <time>1970-01-01T01:00:00Z</time>
      </trkpt>
      <trkpt lat="56.815488" lon="13.952256">
        <ele>169.636</ele>
        <time>1970-01-01T01:00:00Z</time>
      </trkpt>
      <trkpt lat="56.815401" lon="13.95228">
        <ele>169.636</ele>
        <time>1970-01-01T01:00:00Z</time>
      </trkpt>
      <trkpt lat="56.815312" lon="13.952314">
        <ele>169.636</ele>
        <time>1970-01-01T01:00:00Z</time>
      </trkpt>
      <trkpt lat="56.815226" lon="13.952327">
        <ele>169.727</ele>
        <time>1970-01-01T01:00:00Z</time>
      </trkpt>
      <trkpt lat="56.815138" lon="13.952372">
        <ele>169.818</ele>
        <time>1970-01-01T01:00:00Z</time>
      </trkpt>
      <trkpt lat="56.815051" lon="13.952442">
        <ele>169.909</ele>
        <time>1970-01-01T01:00:00Z</time>
      </trkpt>
      <trkpt lat="56.814968" lon="13.95251">
        <ele>170.091</ele>
        <time>1970-01-01T01:00:00Z</time>
      </trkpt>
      <trkpt lat="56.814894" lon="13.952576">
        <ele>170.182</ele>
        <time>1970-01-01T01:00:00Z</time>
      </trkpt>
      <trkpt lat="56.814808" lon="13.95266">
        <ele>170.091</ele>
        <time>1970-01-01T01:00:00Z</time>
      </trkpt>
      <trkpt lat="56.814731" lon="13.952746">
        <ele>170</ele>
        <time>1970-01-01T01:00:00Z</time>
      </trkpt>
      <trkpt lat="56.814654" lon="13.952825">
        <ele>169.909</ele>
        <time>1970-01-01T01:00:00Z</time>
      </trkpt>
      <trkpt lat="56.814583" lon="13.952922">
        <ele>169.818</ele>
        <time>1970-01-01T01:00:00Z</time>
      </trkpt>
      <trkpt lat="56.814513" lon="13.953029">
        <ele>169.727</ele>
        <time>1970-01-01T01:00:00Z</time>
      </trkpt>
      <trkpt lat="56.81444" lon="13.953138">
        <ele>169.636</ele>
        <time>1970-01-01T01:00:00Z</time>
      </trkpt>
      <trkpt lat="56.814372" lon="13.953217">
        <ele>169.545</ele>
        <time>1970-01-01T01:00:00Z</time>
      </trkpt>
      <trkpt lat="56.814293" lon="13.95328">
        <ele>169.455</ele>
        <time>1970-01-01T01:00:00Z</time>
      </trkpt>
      <trkpt lat="56.814225" lon="13.953371">
        <ele>169.364</ele>
        <time>1970-01-01T01:00:00Z</time>
      </trkpt>
      <trkpt lat="56.814152" lon="13.953441">
        <ele>169</ele>
        <time>1970-01-01T01:00:00Z</time>
      </trkpt>
      <trkpt lat="56.814103" lon="13.953561">
        <ele>168.818</ele>
        <time>1970-01-01T01:00:00Z</time>
      </trkpt>
      <trkpt lat="56.814026" lon="13.953623">
        <ele>168.818</ele>
        <time>1970-01-01T01:00:00Z</time>
      </trkpt>
      <trkpt lat="56.813953" lon="13.953702">
        <ele>168.818</ele>
        <time>1970-01-01T01:00:00Z</time>
      </trkpt>
      <trkpt lat="56.813873" lon="13.953786">
        <ele>168.818</ele>
        <time>1970-01-01T01:00:00Z</time>
      </trkpt>
      <trkpt lat="56.813811" lon="13.953916">
        <ele>168.818</ele>
        <time>1970-01-01T01:00:00Z</time>
      </trkpt>
      <trkpt lat="56.813752" lon="13.954038">
        <ele>168.818</ele>
        <time>1970-01-01T01:00:00Z</time>
      </trkpt>
      <trkpt lat="56.81369" lon="13.954154">
        <ele>168.636</ele>
        <time>1970-01-01T01:00:00Z</time>
      </trkpt>
      <trkpt lat="56.813621" lon="13.954272">
        <ele>168.455</ele>
        <time>1970-01-01T01:00:00Z</time>
      </trkpt>
      <trkpt lat="56.813559" lon="13.954392">
        <ele>168.273</ele>
        <time>1970-01-01T01:00:00Z</time>
      </trkpt>
      <trkpt lat="56.813507" lon="13.954512">
        <ele>168.091</ele>
        <time>1970-01-01T01:00:00Z</time>
      </trkpt>
      <trkpt lat="56.813445" lon="13.95461">
        <ele>168.091</ele>
        <time>1970-01-01T01:00:00Z</time>
      </trkpt>
      <trkpt lat="56.813366" lon="13.954687">
        <ele>167.909</ele>
        <time>1970-01-01T01:00:00Z</time>
      </trkpt>
      <trkpt lat="56.813325" lon="13.954857">
        <ele>167.727</ele>
        <time>1970-01-01T01:00:00Z</time>
      </trkpt>
      <trkpt lat="56.813266" lon="13.954985">
        <ele>167.818</ele>
        <time>1970-01-01T01:00:00Z</time>
      </trkpt>
      <trkpt lat="56.813213" lon="13.955121">
        <ele>167.909</ele>
        <time>1970-01-01T01:00:00Z</time>
      </trkpt>
      <trkpt lat="56.813165" lon="13.955256">
        <ele>168</ele>
        <time>1970-01-01T01:00:00Z</time>
      </trkpt>
      <trkpt lat="56.813116" lon="13.955382">
        <ele>168.091</ele>
        <time>1970-01-01T01:00:00Z</time>
      </trkpt>
      <trkpt lat="56.813027" lon="13.95544">
        <ele>168.364</ele>
        <time>1970-01-01T01:00:00Z</time>
      </trkpt>
      <trkpt lat="56.812939" lon="13.955436">
        <ele>168.636</ele>
        <time>1970-01-01T01:00:00Z</time>
      </trkpt>
      <trkpt lat="56.812855" lon="13.955447">
        <ele>168.909</ele>
        <time>1970-01-01T01:00:00Z</time>
      </trkpt>
      <trkpt lat="56.812757" lon="13.955424">
        <ele>169.182</ele>
        <time>1970-01-01T01:00:00Z</time>
      </trkpt>
      <trkpt lat="56.812679" lon="13.955354">
        <ele>169.455</ele>
        <time>1970-01-01T01:00:00Z</time>
      </trkpt>
      <trkpt lat="56.812588" lon="13.955337">
        <ele>169.727</ele>
        <time>1970-01-01T01:00:00Z</time>
      </trkpt>
      <trkpt lat="56.812495" lon="13.955313">
        <ele>170.364</ele>
        <time>1970-01-01T01:00:00Z</time>
      </trkpt>
      <trkpt lat="56.812407" lon="13.955264">
        <ele>170.727</ele>
        <time>1970-01-01T01:00:00Z</time>
      </trkpt>
      <trkpt lat="56.812319" lon="13.955214">
        <ele>171.091</ele>
        <time>1970-01-01T01:00:00Z</time>
      </trkpt>
      <trkpt lat="56.812238" lon="13.955172">
        <ele>171.455</ele>
        <time>1970-01-01T01:00:00Z</time>
      </trkpt>
      <trkpt lat="56.812151" lon="13.955121">
        <ele>171.818</ele>
        <time>1970-01-01T01:00:00Z</time>
      </trkpt>
      <trkpt lat="56.812063" lon="13.955096">
        <ele>172.182</ele>
        <time>1970-01-01T01:00:00Z</time>
      </trkpt>
      <trkpt lat="56.811973" lon="13.95509">
        <ele>172.545</ele>
        <time>1970-01-01T01:00:00Z</time>
      </trkpt>
      <trkpt lat="56.811886" lon="13.955098">
        <ele>172.909</ele>
        <time>1970-01-01T01:00:00Z</time>
      </trkpt>
      <trkpt lat="56.811799" lon="13.955134">
        <ele>173.545</ele>
        <time>1970-01-01T01:00:00Z</time>
      </trkpt>
      <trkpt lat="56.811717" lon="13.955217">
        <ele>174.182</ele>
        <time>1970-01-01T01:00:00Z</time>
      </trkpt>
      <trkpt lat="56.811633" lon="13.955284">
        <ele>174.818</ele>
        <time>1970-01-01T01:00:00Z</time>
      </trkpt>
      <trkpt lat="56.811555" lon="13.955373">
        <ele>175.182</ele>
        <time>1970-01-01T01:00:00Z</time>
      </trkpt>
      <trkpt lat="56.811481" lon="13.955465">
        <ele>175.545</ele>
        <time>1970-01-01T01:00:00Z</time>
      </trkpt>
      <trkpt lat="56.811418" lon="13.955559">
        <ele>175.909</ele>
        <time>1970-01-01T01:00:00Z</time>
      </trkpt>
      <trkpt lat="56.811342" lon="13.95564">
        <ele>176.273</ele>
        <time>1970-01-01T01:00:00Z</time>
      </trkpt>
      <trkpt lat="56.811268" lon="13.955707">
        <ele>176.5</ele>
        <time>1970-01-01T01:00:00Z</time>
      </trkpt>
      <trkpt lat="56.811196" lon="13.95579">
        <ele>176.778</ele>
        <time>1970-01-01T01:00:00Z</time>
      </trkpt>
      <trkpt lat="56.811121" lon="13.955866">
        <ele>177.125</ele>
        <time>1970-01-01T01:00:00Z</time>
      </trkpt>
      <trkpt lat="56.811046" lon="13.955803">
        <ele>177.571</ele>
        <time>1970-01-01T01:00:00Z</time>
      </trkpt>
      <trkpt lat="56.811046" lon="13.955803">
        <ele>177.667</ele>
        <time>1970-01-01T01:00:00Z</time>
      </trkpt>
    </trkseg>
  </trk>
</gpx>